Location: Unspecified
(0.0000°N, 0.0000°E)
Time: 14:40:46
(UTC+00:00)

STARLINK-34936 - Pass Details

Date: 23 February 2026
Orbit: 474 x 476 km, 53.2° (Epoch: 14 March)

Event Time Altitude Azimuth Distance (km) Brightness Sun altitude
Rises 19:44:37 0° 248° (WSW) 2,516 7.4 -22.5°
Reaches altitude 10° 19:47:54 10° 280° (W) 1,633 6.0 -23.3°
Maximum altitude 19:49:26 12° 304° (NW) 1,498 5.4 -23.7°
Drops below altitude 10° 19:50:58 10° 329° (NNW) 1,628 5.2 -24.1°
Enters shadow 19:51:57 - 342° (NNW) 1,829 5.4 -24.3°
